User: anonymous   Login
Location: Bergnerzell
(49.1816°N, 10.2565°E)
Time: 13:24:13
(UTC+00:00)
Language:

Cosmos 724 - Orbit

View from above orbital plane
View from above orbital plane
View from above satellite
View from above satellite

Ground track
Ground track

The orbit data is extracted from the following two-line orbital elements,

1 07727U 75025A   24202.90273209  .00000032  00000-0  81982-4 0  9991
2 07727  65.5900  66.6415 0045605  77.3737 283.2430 13.99031928518283
Epoch (UTC): 20 July 2024 21:39:56
Eccentricity: 0.0045605
inclination: 65.5900°
perigee height: 864 km
apogee height: 930 km
right ascension of ascending node: 66.6415°
argument of perigee: 77.3737°
revolutions per day: 13.99031928
mean anomaly at epoch: 283.2430°
orbit number at epoch: 51828

The dashed part of the orbit path shows where the satellite is in the earth's shadow,  

DLR